Date,TemperatureHighF,TemperatureAvgF,TemperatureLowF,DewpointHighF,DewpointAvgF,DewpointLowF,HumidityHigh,HumidityAvg,HumidityLow,PressureMaxIn,PressureMinIn,WindSpeedMaxMPH,WindSpeedAvgMPH,GustSpeedMaxMPH,PrecipitationSumIn
2013-12-1,46.4,35.3,25.8,33.0,26.5,20.0,82,71,48,30.56,30.23,4,0,9,0.09
2013-12-2,45.0,39.1,35.7,35.0,33.8,32.0,88,81,67,30.23,30.03,4,0,9,0.09
2013-12-3,49.8,43.1,36.8,42.0,38.5,34.0,92,84,72,30.12,30.04,7,1,11,0.00
2013-12-4,56.3,47.3,38.9,48.0,44.1,38.0,96,89,73,30.23,30.11,7,2,13,0.00
2013-12-5,62.2,53.9,43.9,55.0,50.2,43.0,97,88,74,30.22,30.10,9,2,21,0.17
2013-12-6,56.8,41.0,31.9,56.0,40.1,31.0,98,96,94,30.34,30.07,6,1,16,1.03
2013-12-7,31.9,27.3,23.9,31.0,26.4,23.0,97,96,95,30.73,30.34,4,1,11,1.04
2013-12-8,30.5,26.7,25.6,30.0,22.2,-99.9,96,92,94,30.70,30.44,16,-30,20,0.00
2013-12-10,28.9,23.0,20.8,28.0,18.3,-99.9,95,90,86,30.55,30.25,8,-29,16,0.00
2013-12-11,36.2,25.7,17.9,25.0,20.2,16.0,93,81,55,30.68,30.56,4,1,14,0.22
2013-12-12,24.7,20.6,16.6,20.0,13.6,9.0,87,75,56,30.68,30.58,4,1,13,0.02
2013-12-13,36.1,26.9,18.7,22.0,13.1,6.0,69,57,34,30.63,30.52,6,1,13,0.08
2013-12-14,40.1,32.1,30.7,40.0,30.0,26.0,98,92,68,30.54,29.95,13,4,21,0.18
2013-12-15,40.6,28.3,24.3,40.0,27.0,23.0,98,95,92,30.30,29.95,11,2,15,0.45
2013-12-16,36.0,29.7,23.8,32.0,26.5,23.0,96,88,75,30.41,30.28,11,2,16,0.01
2013-12-17,38.6,33.6,25.8,33.0,27.4,-99.9,95,83,77,30.33,30.15,10,-20,19,0.01
2013-12-18,32.0,25.4,20.8,25.0,20.9,19.0,92,83,64,30.52,30.31,4,0,9,0.23
2013-12-19,53.9,43.9,28.1,28.0,22.9,19.0,75,45,29,30.52,30.33,7,2,16,0.19
2013-12-20,55.4,49.7,38.7,46.0,32.2,19.0,75,53,29,30.34,30.23,10,2,25,0.00
2013-12-21,61.8,54.5,44.5,55.0,47.9,40.0,89,79,65,30.23,30.02,14,3,19,0.01
2013-12-22,62.4,52.3,46.4,55.0,49.7,45.0,97,91,74,30.18,29.98,12,2,21,0.01
2013-12-23,49.7,37.9,25.4,49.0,36.5,23.0,98,94,88,30.46,30.15,8,1,17,0.40
2013-12-24,25.6,20.1,10.0,23.0,16.9,7.0,93,87,80,30.72,30.44,6,1,13,0.00
2013-12-25,33.0,21.0,9.1,16.0,11.0,6.0,89,67,45,30.75,30.57,9,2,16,0.01
2013-12-26,35.2,28.4,21.2,24.0,18.3,13.0,88,66,46,30.63,30.51,11,1,14,0.04
2013-12-27,42.8,29.2,20.0,22.0,18.3,13.0,92,67,36,30.73,30.63,5,0,9,0.03
2013-12-28,48.3,37.5,27.4,39.0,21.6,16.0,90,55,30,30.64,30.31,7,1,14,0.13
2013-12-29,41.6,37.7,34.3,41.0,36.6,33.0,97,95,88,30.30,29.93,14,4,23,0.03
2013-12-30,34.5,29.6,26.3,34.0,28.1,24.0,97,94,89,30.38,30.15,5,0,9,0.06
2013-12-31,30.5,25.8,22.8,25.0,21.1,19.0,94,82,65,30.60,30.37,8,1,22,0.02